period_start,C,m1,H,J0,J1,J2,J3,J4,J5,JA,JB,JC,JD,JJ,JK,JN,#
2016-08-28 00:00:00,0.00,0.02,0.00,15.91,22.04,25.33,14.98,48.11,1011.25,2059.00,3554.11,3183.00,3610.14,599.84,607.21,7.18,0000 0000 0000 0000 000000
2016-08-28 00:05:02,0.00,0.02,0.00,15.90,22.04,25.30,14.96,48.02,1011.25,2059.01,3554.11,3183.00,3610.14,600.10,607.67,7.23,0000 0000 0000 0000 000000
2016-08-28 00:10:03,0.00,0.02,0.00,15.91,22.04,25.27,14.86,48.02,1011.26,2059.01,3554.02,3182.99,3610.05,599.52,607.01,7.28,0000 0000 0000 0000 000000
2016-08-28 00:15:04,0.00,0.02,0.00,15.92,22.04,25.27,14.91,48.07,1011.46,2059.00,3554.00,3182.99,3610.02,599.90,607.47,7.33,0000 0000 0000 0000 000000
2016-08-28 00:20:05,0.00,0.02,0.00,15.92,22.04,25.28,15.01,48.10,1011.42,2059.01,3554.00,3182.99,3610.01,600.45,607.93,7.38,0000 0000 0000 0000 000000
2016-08-28 00:25:07,0.00,0.02,0.00,15.94,22.03,25.30,14.96,48.02,1011.54,2059.01,3554.00,3182.99,3610.00,600.04,607.64,7.43,0000 0000 0000 0000 000000
2016-08-28 00:30:08,0.00,0.02,0.00,15.93,22.02,25.31,14.94,47.99,1011.72,2059.00,3554.00,3182.98,3609.99,600.02,607.68,7.48,0000 0000 0000 0000 000000
2016-08-28 00:35:09,0.00,0.02,0.00,15.96,22.02,25.30,14.88,47.86,1011.71,2059.01,3553.97,3182.96,3609.98,600.11,607.70,7.53,0000 0000 0000 0000 000000
2016-08-28 00:40:11,0.01,0.02,0.00,15.97,22.02,25.29,14.92,48.02,1011.72,2059.01,3553.68,3182.91,3609.98,599.75,607.24,7.58,0000 0000 0000 0000 000000
2016-08-28 00:45:12,-0.00,0.02,0.00,15.93,22.02,25.28,15.00,48.04,1011.73,2059.03,3553.64,3182.91,3609.97,600.10,607.79,7.63,0000 0000 0000 0000 000000
2016-08-28 00:50:13,0.01,0.02,0.00,15.95,22.02,25.27,14.94,47.99,1011.74,2059.03,3553.20,3182.81,3609.87,599.88,607.50,7.68,0000 0000 0000 0000 000000
2016-08-28 00:55:15,0.02,0.02,0.00,15.97,22.02,25.28,14.97,48.02,1011.75,2059.04,3553.04,3182.58,3609.50,599.98,607.60,7.73,0000 0000 0000 0000 000000
2016-08-28 01:00:16,0.01,0.02,0.00,15.96,22.02,25.31,14.95,48.02,1011.74,2059.03,3553.00,3182.17,3609.06,600.20,607.82,7.78,0000 0000 0000 0000 000000
2016-08-28 01:05:17,-0.00,0.02,0.00,15.93,22.02,25.35,14.92,48.04,1011.74,2059.03,3553.00,3182.12,3609.03,600.04,607.74,7.83,0000 0000 0000 0000 000000
2016-08-28 01:10:19,0.00,0.02,0.00,15.96,22.02,25.32,14.97,48.23,1011.73,2059.04,3553.00,3182.05,3609.01,599.94,607.51,7.88,0000 0000 0000 0000 000000
2016-08-28 01:15:20,0.00,0.02,0.00,15.94,22.02,25.35,14.93,47.95,1011.72,2059.01,3552.97,3182.01,3609.00,599.89,607.59,7.93,0000 0000 0000 0000 000000
2016-08-28 01:20:21,0.00,0.02,0.00,15.92,22.02,25.32,14.98,48.12,1011.55,2059.01,3552.89,3182.00,3609.00,600.03,607.57,7.98,0000 0000 0000 0000 000000
2016-08-28 01:25:22,0.00,0.02,0.00,15.88,22.02,25.28,14.83,48.07,1011.25,2059.01,3552.62,3182.00,3608.99,599.68,607.30,8.03,0000 0000 0000 0000 000000
2016-08-28 01:30:23,0.01,0.02,0.00,15.87,22.02,25.30,14.94,48.16,1011.19,2059.01,3552.23,3182.00,3608.95,599.90,607.43,8.08,0000 0000 0000 0000 000000
2016-08-28 01:35:24,-0.00,0.02,0.00,15.87,22.02,25.29,14.94,48.04,1010.98,2059.02,3552.03,3181.99,3608.90,600.28,607.61,8.13,0000 0000 0000 0000 000000
2016-08-28 01:40:26,0.00,0.02,0.00,15.92,22.02,25.35,14.93,48.08,1010.80,2059.01,3552.01,3181.99,3608.73,599.67,606.87,8.18,0000 0000 0000 0000 000000
2016-08-28 01:45:27,0.01,0.02,0.00,15.93,22.02,25.33,14.88,47.97,1010.86,2059.01,3552.00,3181.97,3608.22,599.89,606.99,8.23,0000 0000 0000 0000 000000
2016-08-28 01:50:28,0.00,0.02,0.00,15.94,22.02,25.32,14.86,48.01,1011.17,2059.00,3552.00,3181.97,3608.02,599.54,606.81,8.28,0000 0000 0000 0000 000000
2016-08-28 01:55:30,0.00,0.02,0.00,15.91,22.02,25.32,14.99,47.98,1011.24,2059.00,3551.99,3181.96,3608.01,600.14,607.40,8.33,0000 0000 0000 0000 000000
2016-08-28 02:00:31,0.00,0.02,0.00,15.92,22.02,25.27,14.98,47.98,1011.49,2059.00,3551.91,3181.81,3608.00,600.12,607.72,8.38,0000 0000 0000 0000 000000
2016-08-28 02:05:33,-0.00,0.02,0.00,15.89,22.02,25.33,14.93,47.76,1011.73,2059.02,3551.87,3181.71,3608.00,599.84,607.59,8.43,0000 0000 0000 0000 000000
2016-08-28 02:10:34,0.01,0.02,0.00,15.92,22.02,25.35,14.94,47.84,1011.81,2059.01,3551.50,3181.51,3608.00,599.79,607.59,8.48,0000 0000 0000 0000 000000
2016-08-28 02:15:35,0.01,0.02,0.00,15.92,22.02,25.27,14.96,47.91,1012.14,2059.02,3551.18,3181.24,3607.99,599.77,607.77,8.53,0000 0000 0000 0000 000000
2016-08-28 02:20:36,0.01,0.02,0.00,15.93,22.02,25.34,14.91,47.84,1012.22,2059.02,3551.01,3181.07,3607.97,599.90,607.92,8.58,0000 0000 0000 0000 000000
2016-08-28 02:25:37,0.00,0.03,0.00,15.97,22.02,25.35,14.98,48.09,1012.21,2059.01,3551.00,3181.02,3607.88,600.50,608.40,8.63,0000 0000 0000 0000 000000
2016-08-28 02:30:39,0.00,0.03,0.00,15.99,22.02,25.34,14.91,48.05,1012.19,2059.03,3551.00,3181.01,3607.59,599.61,607.52,8.68,0000 0000 0000 0000 000000
2016-08-28 02:35:40,0.00,0.03,0.00,15.99,22.03,25.33,15.00,48.02,1011.93,2059.01,3550.96,3181.00,3607.16,600.31,607.87,8.73,0000 0000 0000 0000 000000
2016-08-28 02:40:41,0.00,0.03,0.00,16.02,22.04,25.36,15.03,47.86,1011.74,2059.03,3550.91,3181.00,3607.10,599.93,607.34,8.78,0000 0000 0000 0000 000000
2016-08-28 02:45:43,0.00,0.03,0.00,16.01,22.04,25.36,14.90,47.96,1011.72,2059.04,3550.87,3181.00,3607.03,599.80,607.30,8.84,0000 0000 0000 0000 000000
2016-08-28 02:50:44,0.00,0.03,0.00,15.98,22.04,25.36,14.97,47.92,1011.60,2059.02,3550.38,3180.99,3607.01,600.09,607.60,8.89,0000 0000 0000 0000 000000
2016-08-28 02:55:45,0.00,0.03,0.00,15.98,22.05,25.36,14.91,48.02,1011.41,2059.02,3550.08,3180.99,3607.00,599.95,607.44,8.94,0000 0000 0000 0000 000000
2016-08-28 03:00:46,0.00,0.03,0.00,15.99,22.05,25.35,14.95,47.97,1011.37,2059.01,3550.02,3180.98,3607.00,599.69,606.94,8.99,0000 0000 0000 0000 000000
2016-08-28 03:05:48,0.00,0.03,0.00,16.03,22.07,25.36,14.93,48.01,1011.45,2059.00,3550.00,3180.95,3606.97,600.16,607.43,9.04,0000 0000 0000 0000 000000
2016-08-28 03:10:49,0.00,0.03,0.00,16.03,22.07,25.34,15.00,48.02,1011.45,2059.01,3550.00,3180.82,3606.80,600.10,607.40,9.09,0000 0000 0000 0000 000000
2016-08-28 03:15:50,0.02,0.03,0.00,16.06,22.08,25.36,14.91,48.01,1011.34,2059.00,3549.98,3180.53,3606.39,599.85,607.10,9.14,0000 0000 0000 0000 000000
2016-08-28 03:20:51,0.01,0.03,0.00,16.11,22.09,25.35,14.93,47.91,1011.28,2059.00,3549.95,3180.15,3606.14,600.05,607.18,9.19,0000 0000 0000 0000 000000
2016-08-28 03:25:53,0.01,0.03,0.00,16.06,22.09,25.37,14.88,47.84,1011.28,2059.00,3549.52,3180.08,3606.02,599.91,607.04,9.24,0000 0000 0000 0000 000000
2016-08-28 03:30:54,0.00,0.03,0.00,16.05,22.10,25.37,15.01,47.98,1011.28,2059.00,3549.08,3180.02,3606.01,600.52,607.62,9.29,0000 0000 0000 0000 000000
2016-08-28 03:35:55,0.00,0.03,0.00,16.09,22.12,25.39,14.86,47.96,1011.27,2059.00,3549.00,3180.00,3605.98,599.60,606.56,9.34,0000 0000 0000 0000 000000
2016-08-28 03:40:56,0.00,0.03,0.00,16.14,22.12,25.41,14.93,47.98,1011.25,2059.00,3549.00,3180.00,3605.96,599.93,606.85,9.39,0000 0000 0000 0000 000000
2016-08-28 03:45:58,0.00,0.03,0.00,16.18,22.13,25.44,14.94,47.98,1011.25,2059.00,3548.97,3179.98,3605.71,600.10,607.00,9.44,0000 0000 0000 0000 000000
2016-08-28 03:50:59,0.01,0.03,0.00,16.18,22.14,25.41,14.88,48.03,1011.25,2058.99,3548.65,3179.92,3605.16,599.92,606.78,9.49,0000 0000 0000 0000 000000
2016-08-28 03:56:00,0.02,0.03,0.00,16.17,22.16,25.49,14.84,47.95,1011.25,2058.98,3548.19,3179.40,3605.01,599.71,606.54,9.54,0000 0000 0000 0000 000000
2016-08-28 04:01:01,0.00,0.03,0.00,16.19,22.17,25.43,14.91,47.91,1011.25,2058.97,3548.01,3179.05,3604.99,600.11,606.96,9.59,0000 0000 0000 0000 000000
2016-08-28 04:06:03,0.00,0.03,0.00,16.20,22.19,25.50,14.85,47.97,1011.25,2058.95,3547.99,3179.01,3604.80,599.71,606.52,9.64,0000 0000 0000 0000 000000
2016-08-28 04:11:04,0.00,0.03,0.00,16.25,22.20,25.54,14.93,47.97,1011.27,2058.93,3547.98,3179.00,3604.26,600.13,606.88,9.69,0000 0000 0000 0000 000000
2016-08-28 04:16:05,0.00,0.03,0.00,16.27,22.22,25.52,14.88,47.92,1011.30,2058.91,3547.88,3178.98,3604.03,600.16,606.68,9.74,0000 0000 0000 0000 000000
2016-08-28 04:21:07,0.01,0.03,0.00,16.24,22.23,25.49,14.85,48.06,1011.43,2058.84,3547.15,3178.82,3604.00,599.49,606.31,9.79,0000 0000 0000 0000 000000
2016-08-28 04:26:08,-0.02,0.03,0.00,16.29,22.25,25.56,14.91,48.06,1011.42,2058.40,3547.00,3178.24,3603.93,599.86,606.56,9.84,0000 0000 0000 0000 000000
2016-08-28 04:31:09,-0.01,0.03,0.00,16.32,22.27,25.58,14.94,48.05,1011.49,2058.20,3546.99,3178.02,3603.39,599.78,606.58,9.89,0000 0000 0000 0000 000000
2016-08-28 04:36:11,-0.00,0.03,0.00,16.36,22.29,25.62,14.94,48.14,1011.60,2058.09,3546.79,3178.00,3603.04,600.11,606.89,9.94,0000 0000 0000 0000 000000
2016-08-28 04:41:12,0.01,0.03,0.00,16.36,22.31,25.63,14.86,48.02,1011.67,2058.05,3546.21,3177.99,3603.00,599.83,606.70,9.99,0000 0000 0000 0000 000000
2016-08-28 04:46:13,0.02,0.03,0.00,16.40,22.32,25.66,14.94,48.05,1011.68,2058.01,3545.99,3177.48,3602.53,600.06,606.72,10.04,0000 0000 0000 0000 000000
2016-08-28 04:51:15,0.01,0.03,0.00,16.43,22.34,25.68,14.91,48.05,1011.70,2058.00,3545.81,3177.04,3602.04,600.05,606.58,10.09,0000 0000 0000 0000 000000
2016-08-28 04:56:16,0.00,0.03,0.00,16.44,22.37,25.71,14.95,48.01,1011.65,2058.00,3545.28,3177.00,3602.00,600.08,606.54,10.14,0000 0000 0000 0000 000000
2016-08-28 05:01:17,0.00,0.03,0.00,16.47,22.38,25.73,14.85,47.92,1011.51,2058.00,3545.03,3176.97,3601.83,599.86,606.38,10.19,0000 0000 0000 0000 000000
2016-08-28 05:06:19,0.01,0.03,0.00,16.52,22.40,25.75,14.93,48.09,1011.36,2057.98,3544.99,3176.71,3601.16,600.27,606.41,10.24,0000 0000 0000 0000 000000
2016-08-28 05:11:20,0.01,0.04,0.00,16.52,22.43,25.75,14.88,47.93,1011.33,2057.96,3544.74,3176.09,3601.00,600.01,606.17,10.29,0000 0000 0000 0000 000000
2016-08-28 05:16:22,0.01,0.04,0.00,16.52,22.45,25.82,14.91,48.07,1011.28,2057.95,3544.07,3176.00,3600.94,599.65,605.80,10.34,0000 0000 0000 0000 000000
2016-08-28 05:21:23,0.00,0.04,0.00,16.55,22.47,25.79,14.88,48.21,1011.26,2057.88,3544.00,3175.98,3600.33,599.87,605.96,10.39,0000 0000 0000 0000 000000
2016-08-28 05:26:24,-0.04,0.04,0.00,16.59,22.49,25.81,14.91,48.06,1011.26,2057.40,3543.97,3175.84,3600.02,600.30,606.24,10.44,0000 0000 0000 0000 000000
2016-08-28 05:31:25,0.01,0.03,0.00,16.62,22.51,25.84,14.81,47.97,1011.26,2057.13,3543.46,3175.37,3599.91,599.79,605.93,10.49,0000 0000 0000 0000 000000
2016-08-28 05:36:26,0.01,0.04,0.00,16.63,22.53,25.88,14.90,48.09,1011.26,2057.02,3543.00,3174.98,3599.07,600.08,606.15,10.54,0000 0000 0000 0000 000000
2016-08-28 05:41:28,0.02,0.04,0.00,16.70,22.55,25.90,14.90,47.98,1011.27,2057.01,3542.55,3174.40,3598.99,600.13,605.92,10.59,0000 0000 0000 0000 000000
2016-08-28 05:46:29,0.02,0.04,0.00,16.69,22.58,25.94,14.87,48.22,1011.28,2057.00,3542.03,3174.02,3598.63,599.93,605.74,10.64,0000 0000 0000 0000 000000
2016-08-28 05:51:30,0.00,0.04,0.00,16.71,22.59,25.95,14.88,48.07,1011.29,2057.00,3542.00,3174.00,3598.05,600.01,605.87,10.69,0000 0000 0000 0000 000000
2016-08-28 05:56:32,0.01,0.04,0.00,16.71,22.62,25.94,14.91,47.84,1011.30,2057.00,3541.67,3173.96,3598.00,600.14,605.79,10.74,0000 0000 0000 0000 000000
2016-08-28 06:01:33,0.02,0.04,0.00,16.73,22.64,25.97,14.83,47.94,1011.28,2056.99,3541.04,3173.40,3597.81,599.71,605.41,10.79,0000 0000 0000 0000 000000
2016-08-28 06:06:34,0.01,0.04,0.00,16.76,22.66,26.04,14.95,47.94,1011.26,2056.97,3541.00,3173.05,3597.19,600.09,605.78,10.84,0000 0000 0000 0000 000000
2016-08-28 06:11:35,-0.00,0.04,0.00,16.80,22.68,26.04,14.80,47.92,1011.25,2056.96,3540.94,3173.00,3597.01,600.25,605.86,10.89,0000 0000 0000 0000 000000
2016-08-28 06:16:37,0.01,0.04,0.00,16.81,22.70,26.12,14.86,47.98,1011.25,2056.92,3540.32,3172.98,3596.94,599.86,605.48,10.94,0000 0000 0000 0000 000000
2016-08-28 06:21:38,-0.01,0.04,0.00,16.85,22.72,26.09,14.87,47.94,1011.25,2056.57,3540.02,3172.80,3596.30,600.04,605.39,10.99,0000 0000 0000 0000 000000
2016-08-28 06:26:39,-0.01,0.04,0.00,16.89,22.74,26.13,14.91,48.14,1011.25,2056.22,3539.99,3172.12,3596.01,600.22,605.65,11.04,0000 0000 0000 0000 000000
2016-08-28 06:31:40,-0.01,0.04,0.00,16.90,22.77,26.14,14.95,48.27,1011.25,2056.11,3539.91,3172.01,3595.97,600.01,605.36,11.10,0000 0000 0000 0000 000000
2016-08-28 06:36:41,0.02,0.04,0.00,16.90,22.79,26.18,14.88,48.17,1011.25,2056.03,3539.11,3171.96,3595.24,599.98,605.28,11.15,0000 0000 0000 0000 000000
2016-08-28 06:41:43,0.02,0.04,0.00,16.92,22.81,26.20,14.84,48.02,1011.25,2056.00,3539.00,3171.31,3595.00,599.80,605.12,11.20,0000 0000 0000 0000 000000
2016-08-28 06:46:44,0.01,0.04,0.00,16.91,22.83,26.21,14.90,48.16,1011.25,2056.00,3538.66,3171.01,3594.87,599.53,604.85,11.25,0000 0000 0000 0000 000000
2016-08-28 06:51:45,0.01,0.04,0.00,16.93,22.86,26.26,14.83,47.99,1011.25,2055.99,3538.10,3171.00,3594.22,599.86,605.11,11.30,0000 0000 0000 0000 000000
2016-08-28 06:56:46,0.00,0.04,0.00,17.02,22.88,26.31,14.91,47.95,1011.25,2055.96,3537.98,3170.93,3594.00,600.27,605.34,11.35,0000 0000 0000 0000 000000
2016-08-28 07:01:48,0.01,0.04,0.00,17.02,22.90,26.34,14.89,47.90,1011.25,2055.97,3537.84,3170.39,3593.96,600.25,605.29,11.40,0000 0000 0000 0000 000000
2016-08-28 07:06:49,0.02,0.05,0.00,17.02,22.92,26.35,14.84,47.93,1011.25,2055.91,3537.09,3170.04,3593.27,600.05,605.10,11.45,0000 0000 0000 0000 000000
2016-08-28 07:11:50,-0.03,0.05,0.00,17.01,22.94,26.38,14.88,47.88,1011.25,2055.57,3537.00,3170.00,3593.01,599.94,604.91,11.50,0000 0000 0000 0000 000000
2016-08-28 07:16:51,0.00,0.04,0.00,17.07,22.97,26.38,14.81,47.87,1011.25,2055.45,3536.88,3169.94,3592.99,600.03,605.00,11.55,0000 0000 0000 0000 000000
2016-08-28 07:21:53,0.02,0.04,0.00,17.13,22.99,26.42,14.86,47.97,1011.25,2055.18,3536.15,3169.31,3592.53,600.04,604.91,11.60,0000 0000 0000 0000 000000
2016-08-28 07:26:54,-0.01,0.05,0.00,17.15,23.02,26.42,14.86,47.92,1011.25,2055.07,3536.00,3169.01,3592.03,599.89,604.71,11.65,0000 0000 0000 0000 000000
2016-08-28 07:31:55,0.00,0.05,0.00,17.13,23.04,26.48,14.89,48.11,1011.25,2055.05,3535.98,3168.99,3592.00,599.89,604.80,11.70,0000 0000 0000 0000 000000
2016-08-28 07:36:57,-0.00,0.05,0.00,17.16,23.06,26.47,14.83,48.13,1011.25,2055.00,3535.87,3168.98,3591.85,599.74,604.57,11.75,0000 0000 0000 0000 000000
2016-08-28 07:41:58,0.03,0.05,0.00,17.21,23.09,26.53,14.87,48.21,1011.25,2055.00,3535.27,3168.66,3591.18,599.85,604.56,11.80,0000 0000 0000 0000 000000
2016-08-28 07:46:59,0.01,0.05,0.00,17.24,23.12,26.53,14.82,48.14,1011.25,2055.00,3535.00,3168.04,3591.00,599.93,604.52,11.85,0000 0000 0000 0000 000000
2016-08-28 07:52:01,0.00,0.05,0.00,17.25,23.14,26.58,14.88,48.02,1011.25,2054.98,3534.97,3168.00,3590.87,600.16,604.76,11.90,0000 0000 0000 0000 000000
2016-08-28 07:57:02,0.01,0.05,0.00,17.29,23.17,26.63,14.88,48.13,1011.25,2054.97,3534.49,3167.97,3590.20,599.97,604.52,11.95,0000 0000 0000 0000 000000
2016-08-28 08:02:03,-0.00,0.05,0.00,17.35,23.20,26.66,14.89,48.17,1011.25,2054.80,3534.03,3167.49,3590.00,600.30,604.78,12.00,0000 0000 0000 0000 000000
2016-08-28 08:07:05,-0.02,0.05,0.00,17.39,23.23,26.70,14.88,48.15,1011.25,2054.46,3533.99,3167.04,3589.86,600.24,604.57,12.05,0000 0000 0000 0000 000000
2016-08-28 08:12:06,-0.01,0.05,0.00,17.44,23.26,26.70,14.83,48.08,1011.25,2054.08,3533.74,3167.00,3589.15,599.87,604.03,12.10,0000 0000 0000 0000 000000
2016-08-28 08:17:07,0.01,0.05,0.00,17.48,23.29,26.74,14.86,47.96,1011.25,2054.02,3533.09,3166.94,3589.00,599.79,603.93,12.15,0000 0000 0000 0000 000000
2016-08-28 08:22:09,0.02,0.05,0.00,17.50,23.32,26.79,14.84,47.88,1011.25,2054.00,3533.00,3166.29,3588.84,599.92,604.08,12.20,0000 0000 0000 0000 000000
2016-08-28 08:27:10,0.01,0.05,0.00,17.58,23.35,26.83,14.87,48.04,1011.26,2054.00,3532.85,3166.01,3588.16,600.12,604.07,12.25,0000 0000 0000 0000 000000
2016-08-28 08:32:12,0.01,0.05,0.00,17.62,23.38,26.86,14.87,48.08,1011.25,2053.98,3532.10,3165.97,3587.99,600.23,603.98,12.30,0000 0000 0000 0000 000000
2016-08-28 08:37:13,0.01,0.05,0.00,17.67,23.41,26.88,14.84,47.87,1011.26,2053.97,3531.99,3165.68,3587.85,599.81,603.57,12.35,0000 0000 0000 0000 000000
2016-08-28 08:42:15,0.01,0.05,0.00,17.70,23.45,26.89,14.79,47.79,1011.28,2053.81,3531.57,3165.05,3587.09,599.93,603.58,12.40,0000 0000 0000 0000 000000
2016-08-28 08:47:16,-0.04,0.05,0.00,17.75,23.48,26.95,14.83,47.87,1011.34,2053.26,3531.05,3165.00,3586.99,600.03,603.63,12.45,0000 0000 0000 0000 000000
2016-08-28 08:52:18,0.00,0.05,0.00,17.77,23.52,26.98,14.78,47.91,1011.38,2053.06,3531.00,3164.89,3586.61,599.70,603.34,12.50,0000 0000 0000 0000 000000
2016-08-28 08:57:19,0.04,0.05,0.00,17.81,23.55,27.03,14.85,48.07,1011.53,2053.00,3530.19,3164.08,3585.86,600.27,603.91,12.55,0000 0000 0000 0000 000000
2016-08-28 09:02:20,0.01,0.05,0.00,17.83,23.59,27.05,14.85,47.93,1011.55,2053.00,3530.00,3163.95,3585.17,599.92,603.60,12.60,0000 0000 0000 0000 000000
2016-08-28 09:07:22,0.02,0.05,0.00,17.88,23.63,27.11,14.77,47.88,1011.56,2052.98,3529.74,3163.30,3585.00,599.93,603.43,12.65,0000 0000 0000 0000 000000
2016-08-28 09:12:23,0.01,0.05,0.00,17.95,23.66,27.13,14.83,47.84,1011.58,2052.96,3529.07,3163.00,3584.90,600.25,603.62,12.70,0000 0000 0000 0000 000000
2016-08-28 09:17:24,-0.00,0.05,0.00,17.97,23.69,27.17,14.69,47.89,1011.62,2052.83,3529.00,3162.98,3584.13,599.63,602.98,12.75,0000 0000 0000 0000 000000
2016-08-28 09:22:25,-0.03,0.05,0.00,17.93,23.72,27.15,14.85,48.02,1011.69,2052.21,3528.70,3162.48,3583.98,600.42,603.88,12.80,0000 0000 0000 0000 000000
2016-08-28 09:27:27,0.01,0.05,0.00,17.95,23.76,27.19,14.80,48.08,1011.71,2052.02,3528.03,3162.01,3583.52,600.19,603.58,12.85,0000 0000 0000 0000 000000
2016-08-28 09:32:28,0.00,0.05,0.00,18.01,23.79,27.21,14.84,48.02,1011.73,2052.00,3527.98,3161.97,3583.02,599.90,603.24,12.90,0000 0000 0000 0000 000000
2016-08-28 09:37:30,0.01,0.05,0.00,18.06,23.81,27.21,14.80,48.08,1011.73,2052.00,3527.67,3161.80,3583.00,599.99,603.17,12.95,0000 0000 0000 0000 000000
2016-08-28 09:42:31,0.02,0.05,0.00,18.04,23.84,27.27,14.85,47.96,1011.73,2051.99,3527.16,3161.28,3582.97,600.02,603.38,13.00,0000 0000 0000 0000 000000
2016-08-28 09:47:33,0.01,0.06,0.00,18.06,23.87,27.29,14.77,47.92,1011.73,2051.96,3527.00,3161.01,3582.35,600.27,603.51,13.05,0000 0000 0000 0000 000000
2016-08-28 09:52:34,-0.02,0.06,0.00,18.09,23.90,27.31,14.76,47.91,1011.73,2051.80,3526.87,3160.99,3582.01,599.96,603.22,13.10,0000 0000 0000 0000 000000
2016-08-28 09:57:36,-0.01,0.05,0.00,18.12,23.92,27.32,14.85,47.94,1011.73,2051.28,3526.14,3160.80,3581.97,600.05,603.16,13.15,0000 0000 0000 0000 000000
2016-08-28 10:02:37,0.01,0.05,0.00,18.12,23.94,27.34,14.82,47.88,1011.73,2051.05,3526.00,3160.17,3581.51,600.08,603.14,13.21,0000 0000 0000 0000 000000
2016-08-28 10:07:38,0.00,0.05,0.00,18.13,23.96,27.43,14.82,47.89,1011.73,2051.02,3525.95,3160.02,3581.04,599.73,602.85,13.26,0000 0000 0000 0000 000000
2016-08-28 10:12:40,0.01,0.05,0.00,18.16,23.97,27.47,14.88,47.92,1011.74,2051.01,3525.37,3160.00,3581.00,600.33,603.36,13.31,0000 0000 0000 0000 000000
2016-08-28 10:17:41,0.00,0.05,0.00,18.20,24.00,27.48,14.82,47.83,1011.76,2051.00,3525.03,3159.98,3580.92,599.87,602.95,13.36,0000 0000 0000 0000 000000
2016-08-28 10:22:42,0.02,0.06,0.00,18.23,24.02,27.47,14.83,47.88,1011.82,2051.00,3525.00,3159.72,3580.39,600.34,603.32,13.41,0000 0000 0000 0000 000000
2016-08-28 10:27:43,0.01,0.06,0.00,18.24,24.04,27.53,14.89,47.84,1012.03,2051.00,3524.90,3159.16,3580.03,600.49,603.52,13.46,0000 0000 0000 0000 000000
2016-08-28 10:32:45,0.01,0.06,0.00,18.26,24.06,27.49,14.80,47.76,1012.15,2051.00,3524.23,3159.00,3579.99,599.84,602.89,13.51,0000 0000 0000 0000 000000
2016-08-28 10:37:46,0.01,0.06,0.00,18.30,24.08,27.50,14.77,47.77,1012.21,2050.97,3524.00,3158.95,3579.46,600.11,603.04,13.56,0000 0000 0000 0000 000000
2016-08-28 10:42:47,0.02,0.06,0.00,18.32,24.11,27.56,14.77,47.69,1012.22,2050.96,3523.94,3158.35,3579.01,599.75,602.74,13.61,0000 0000 0000 0000 000000
2016-08-28 10:47:49,0.00,0.06,0.00,18.34,24.13,27.55,14.84,47.73,1012.22,2050.77,3523.17,3158.01,3578.77,599.99,602.90,13.66,0000 0000 0000 0000 000000
2016-08-28 10:52:50,-0.02,0.06,0.00,18.38,24.16,27.58,14.79,47.68,1012.22,2050.44,3522.97,3157.94,3578.05,600.07,602.90,13.71,0000 0000 0000 0000 000000
2016-08-28 10:57:52,0.00,0.06,0.00,18.38,24.19,27.64,14.75,47.52,1012.23,2050.14,3522.48,3157.29,3577.94,599.62,602.68,13.76,0000 0000 0000 0000 000000
2016-08-28 11:02:53,0.01,0.06,0.00,18.37,24.21,27.67,14.83,47.73,1012.24,2050.05,3522.01,3157.00,3577.25,600.08,603.01,13.81,0000 0000 0000 0000 000000
2016-08-28 11:07:54,0.04,0.06,0.00,18.44,24.24,27.69,14.82,47.75,1012.22,2050.00,3521.51,3156.42,3576.59,600.31,603.04,13.86,0000 0000 0000 0000 000000
2016-08-28 11:12:56,0.01,0.06,0.00,18.44,24.26,27.73,14.77,47.59,1012.24,2050.00,3520.97,3155.98,3576.00,599.91,602.66,13.91,0000 0000 0000 0000 000000
2016-08-28 11:17:57,0.04,0.06,0.00,18.45,24.28,27.77,14.83,47.63,1012.26,2049.99,3520.27,3155.31,3575.32,600.32,603.09,13.96,0000 0000 0000 0000 000000
2016-08-28 11:22:58,0.01,0.06,0.00,18.42,24.31,27.72,14.88,47.63,1012.30,2049.98,3520.01,3155.01,3575.00,600.09,602.92,14.01,0000 0000 0000 0000 000000
2016-08-28 11:27:59,0.00,0.06,0.00,18.45,24.32,27.73,14.84,47.64,1012.33,2049.97,3519.97,3154.99,3574.74,599.79,602.63,14.06,0000 0000 0000 0000 000000
2016-08-28 11:33:00,0.02,0.07,0.00,18.45,24.35,27.78,14.80,47.58,1012.47,2049.88,3519.50,3154.61,3574.07,600.28,603.12,14.11,0000 0000 0000 0000 000000
2016-08-28 11:38:02,-0.03,0.07,0.00,18.41,24.36,27.79,14.75,47.49,1012.56,2049.35,3519.01,3154.03,3573.78,599.81,602.95,14.16,0000 0000 0000 0000 000000
2016-08-28 11:43:03,-0.00,0.06,0.00,18.43,24.37,27.79,14.77,47.50,1012.66,2049.04,3518.82,3153.87,3573.03,599.86,602.94,14.21,0000 0000 0000 0000 000000
2016-08-28 11:48:04,0.09,0.07,0.00,18.47,24.39,27.79,14.77,47.48,1012.66,2049.02,3516.76,3152.34,3571.90,600.07,603.02,14.26,0000 0000 0000 0000 000000
2016-08-28 11:53:05,0.46,0.08,0.00,18.47,24.40,27.89,14.84,47.56,1012.70,2049.00,3510.71,3146.12,3565.16,600.01,602.94,14.31,0000 0000 0000 0000 000000
2016-08-28 11:58:06,0.05,0.09,0.00,18.47,24.42,27.88,14.81,47.52,1012.71,2049.00,3507.52,3142.99,3561.78,600.15,603.06,14.36,0000 0000 0000 0000 000000
2016-08-28 12:03:08,0.03,0.10,0.00,18.43,24.42,27.85,14.76,47.52,1012.71,2049.00,3506.88,3142.27,3560.99,600.04,603.09,14.41,0000 0000 0000 0000 000000
2016-08-28 12:08:09,0.30,0.10,0.00,18.40,24.44,27.90,14.86,47.63,1012.71,2048.99,3501.60,3139.24,3557.60,600.10,603.21,14.46,0000 0000 0000 0000 000000
2016-08-28 12:13:10,0.31,0.12,0.00,18.46,24.45,27.91,14.87,47.52,1012.71,2048.97,3493.41,3134.30,3551.93,600.45,603.46,14.51,0000 0000 0000 0000 000000
2016-08-28 12:18:12,0.03,0.13,0.00,18.45,24.45,27.88,14.77,47.42,1012.72,2048.98,3491.02,3132.93,3550.03,600.09,603.22,14.56,0000 0000 0000 0000 000000
2016-08-28 12:23:12,0.01,0.13,0.00,18.45,24.46,27.89,14.75,47.33,1012.71,2048.98,3490.88,3132.48,3550.00,600.12,603.13,14.61,0000 0000 0000 0000 000000
2016-08-28 12:28:14,0.01,0.13,0.00,18.45,24.47,27.91,14.77,47.49,1012.71,2048.97,3490.41,3132.08,3549.97,599.70,602.71,14.66,0000 0000 0000 0000 000000
2016-08-28 12:33:15,0.01,0.13,0.00,18.43,24.47,27.95,14.87,47.56,1012.71,2048.91,3490.03,3132.01,3549.49,600.24,603.24,14.71,0000 0000 0000 0000 000000
2016-08-28 12:38:16,-0.01,0.13,0.00,18.47,24.47,27.92,14.83,47.47,1012.72,2048.86,3490.00,3132.00,3549.04,600.04,603.06,14.76,0000 0000 0000 0000 000000
2016-08-28 12:43:17,-0.03,0.13,0.00,18.47,24.48,27.93,14.81,47.44,1012.71,2048.53,3489.91,3131.99,3549.00,599.76,602.72,14.81,0000 0000 0000 0000 000000
2016-08-28 12:48:19,0.01,0.13,0.00,18.45,24.49,27.97,14.81,47.46,1012.71,2048.50,3489.60,3131.95,3548.98,599.89,602.89,14.86,0000 0000 0000 0000 000000
2016-08-28 12:53:20,-0.00,0.13,0.00,18.44,24.50,27.94,14.78,47.39,1012.71,2048.27,3489.05,3131.68,3548.94,599.67,602.71,14.91,0000 0000 0000 0000 000000